TimeCST,TemperatureF,Dew PointF,Humidity,Sea Level PressureIn,VisibilityMPH,Wind Direction,Wind SpeedMPH,Gust SpeedMPH,PrecipitationIn,Events,Conditions,WindDirDegrees,DateUTC
12:53 AM,37.0,35.1,93,30.14,5.0,Calm,Calm,-,N/A,,Scattered Clouds,0,2013-01-21 06:53:00
1:53 AM,37.9,37.0,97,30.16,5.0,Calm,Calm,-,N/A,,Scattered Clouds,0,2013-01-21 07:53:00
3:53 AM,39.9,37.9,93,30.16,6.0,East,3.5,-,N/A,,Scattered Clouds,90,2013-01-21 09:53:00
4:53 AM,39.0,37.0,93,30.17,5.0,Calm,Calm,-,N/A,,Partly Cloudy,0,2013-01-21 10:53:00
5:10 AM,36.0,35.1,97,30.18,1.8,North,5.8,-,N/A,,Partly Cloudy,360,2013-01-21 11:10:00
5:22 AM,36.0,35.1,97,30.18,3.0,ESE,3.5,-,N/A,,Partly Cloudy,120,2013-01-21 11:22:00
5:53 AM,37.9,36.0,93,30.19,5.0,Calm,Calm,-,N/A,,Clear,0,2013-01-21 11:53:00
6:13 AM,36.0,34.0,93,30.19,2.0,Calm,Calm,-,N/A,,Clear,0,2013-01-21 12:13:00
6:53 AM,37.0,36.0,96,30.20,4.0,East,5.8,-,N/A,,Clear,90,2013-01-21 12:53:00
7:53 AM,37.9,35.1,89,30.23,10.0,East,4.6,-,N/A,,Clear,80,2013-01-21 13:53:00
8:53 AM,45.0,36.0,71,30.27,10.0,East,12.7,-,N/A,,Clear,80,2013-01-21 14:53:00
9:53 AM,46.9,34.0,61,30.30,10.0,East,9.2,-,N/A,,Clear,80,2013-01-21 15:53:00
10:53 AM,48.9,32.0,52,30.31,10.0,East,12.7,-,N/A,,Mostly Cloudy,100,2013-01-21 16:53:00
11:53 AM,51.1,30.9,46,30.30,10.0,East,11.5,-,N/A,,Mostly Cloudy,90,2013-01-21 17:53:00
12:53 PM,50.0,30.0,46,30.27,10.0,Variable,4.6,-,N/A,,Partly Cloudy,0,2013-01-21 18:53:00
1:53 PM,53.1,28.0,38,30.25,10.0,Calm,Calm,-,N/A,,Mostly Cloudy,0,2013-01-21 19:53:00
2:53 PM,54.0,28.9,38,30.24,10.0,East,5.8,-,N/A,,Clear,100,2013-01-21 20:53:00
3:53 PM,55.0,28.0,35,30.23,10.0,ESE,4.6,-,N/A,,Clear,110,2013-01-21 21:53:00
4:53 PM,53.1,27.0,37,30.24,10.0,ESE,3.5,-,N/A,,Scattered Clouds,120,2013-01-21 22:53:00
5:53 PM,50.0,27.0,41,30.23,10.0,SSE,4.6,-,N/A,,Clear,150,2013-01-21 23:53:00
6:53 PM,44.1,30.0,58,30.24,10.0,Calm,Calm,-,N/A,,Overcast,0,2013-01-22 00:53:00
7:53 PM,39.9,32.0,73,30.25,10.0,Calm,Calm,-,N/A,,Clear,0,2013-01-22 01:53:00
8:53 PM,35.1,30.9,85,30.26,10.0,East,3.5,-,N/A,,Clear,100,2013-01-22 02:53:00
9:53 PM,34.0,30.0,85,30.27,10.0,ENE,3.5,-,N/A,,Clear,70,2013-01-22 03:53:00
10:53 PM,32.0,28.0,85,30.28,10.0,ENE,3.5,-,N/A,,Clear,70,2013-01-22 04:53:00
11:53 PM,35.1,25.0,67,30.28,10.0,ENE,6.9,-,N/A,,Clear,70,2013-01-22 05:53:00